Regional Weather Roundup
Issued by NWS

Home | Current Version | Previous Version | Text Only | Print | Product List | Glossary Off
Versions: 1 2 3 4 5 6 7 8 9 10 11 12 13 14 15 16 17 18 19 20 21 22 23 24 25 26 27

000
ASUS45 KSLC 161210
RWRUT

UTAH REGIONAL WEATHER ROUNDUP
NATIONAL WEATHER SERVICE SALT LAKE CITY UT
500 AM MST MON JAN 16 2017

UTZ001>011-023>025-161300-

NORTHERN UTAH

CITY           SKY/WX    TMP DP  RH WIND       PRES   REMARKS
BRIGHAM CITY     N/A     10   7  85 SE6       30.25S WCI   1
HILL AFB       MOCLDY    14   7  75 E13       30.21S WCI   0
LOGAN          FOG        0  -2  91 CALM      30.28S VSB 1/4
OGDEN          CLOUDY    17  11  77 SW5       30.23S WCI  10
SALT LAKE CITY CLOUDY    25  22  88 N8        30.23S WCI  16
TOOELE VALLEY  CLOUDY    27  25  93 W3        30.24S
WENDOVER       CLOUDY    21  18  86 NE6       30.24S WCI  14
HEBER CITY     LGT SNOW   9   7  92 CALM      30.19S
WEST JORDAN    CLOUDY    24  24 100 NW7       30.22S WCI  16

$$

UTZ011>015-024>027-161300-

CENTRAL/NORTHEAST UTAH

CITY           SKY/WX    TMP DP  RH WIND       PRES   REMARKS
PROVO AIRPORT  CLOUDY    26  21  81 N7        30.22S WCI  18
MOAB/CANYONLAN PTCLDY    33  33 100 W7        29.98S WCI  27
DELTA          CLOUDY    27  23  86 N5        30.20S WCI  21
PRICE          CLEAR     23  13  65 N5        30.00R WCI  17
RICHFIELD      CLOUDY    28  21  74 NE7       30.17S WCI  21
ROOSEVELT      CLOUDY    28  23  80 NW3       30.13R
VERNAL         CLOUDY    19  17  92 W3        30.11R

$$

UTZ013>016-019>022-027-161300-

SOUTHERN UTAH

CITY           SKY/WX    TMP DP  RH WIND       PRES   REMARKS
BRYCE CANYON   MOCLDY    16  13  88 NW12      30.04R WCI   3
CEDAR CITY     PTCLDY    24  18  77 N14G20    30.10S WCI  12
MILFORD        CLOUDY    27  23  85 N12       30.16R WCI  17
ST GEORGE      MOSUNNY   34  25  69 SE8       30.09S WCI  27
HANKSVILLE     CLOUDY    34  30  86 MISG      30.03S
KANAB          CLEAR     27  25  93 CALM      30.07F
BLANDING       CLOUDY    34  34 100 CALM      30.00S

$$

REGIONAL REPORTS     COLORADO/ARIZONA

CITY           SKY/WX    TMP DP  RH WIND       PRES   REMARKS
CRAIG, CO      CLOUDY    13  10  88 SW3       30.09R
GRAND JUNCTION CLOUDY    32  22  66 E5        29.99R WCI  27
RIFLE, CO      CLOUDY    28  18  66 W6        30.02R WCI  22
MONTROSE, CO   CLOUDY    30  28  92 SE7       30.00S WCI  23
CORTEZ, CO     CLOUDY    34  32  92 NW9       29.90F WCI  27
COLORADO CITY  CLOUDY    32  28  86 N5        30.05S WCI  27
PAGE, AZ       CLOUDY    40  23  50 NW7       29.98S
GRAND CANYON   CLEAR     28  26  92 CALM      29.99S
KINGMAN, AZ    MOCLDY    36  30  79 E9        30.03F WCI  29
FLAGSTAFF, AZ  CLEAR     30  29  96 W3        29.96F

$$

REGIONAL REPORTS    NEVADA/IDAHO/WYOMING

CITY           SKY/WX    TMP DP  RH WIND       PRES   REMARKS
LAS VEGAS, NV  CLOUDY    44  29  55 S3        30.06S
ELY, NY        NOT AVBL
ELKO, NV       CLOUDY    22  17  81 E3        30.26S
POCATELLO, ID  LGT SNOW   5   2  87 N3        30.32S FOG
BURLEY, ID     CLOUDY    10   7  87 CALM      30.31S FOG
FORT BRIDGER,    N/A      4   3  97 N3        30.14R
EVANSTON, WY   CLOUDY     2  -3  80 NE6       30.11S WCI  -9
ROCK SPRINGS,  CLOUDY    -6 -11  79 S6        30.12R WCI -19
KEMMERER, WY     N/A    N/A N/A N/A N3        30.10S HAZE

$$




USA.gov is the U.S. government's official web portal to all federal, state and local government web resources and services.